FW6441 Weather Reports


time (UTC)temp
F
wind
direction
speed
knots
gust
knots
rain 1hr
in
rain 24hr
in
rain mn
in
humidity
%
barometer
mb
20260504000426 60 158 1.7 5.2 0.00 0.00 0.00 80 1013.6
20260503235930 60 172 1.7 4.3 0.00 0.00 0.00 79 1013.7
20260503235426 60 167 2.6 6.1 0.00 0.00 0.00 79 1013.7
20260503234928 60 164 3.5 7.0 0.00 0.00 0.00 79 1013.7
20260503234426 60 166 3.5 7.0 0.00 0.00 0.00 79 1013.8
20260503233929 60 161 2.6 6.1 0.00 0.00 0.00 79 1013.7
20260503233428 60 160 3.5 7.0 0.00 0.00 0.00 78 1013.8
20260503232429 60 158 3.5 6.1 0.00 0.00 0.00 78 1013.8
20260503231430 61 165 1.7 6.1 0.00 0.00 0.00 77 1013.9
20260503230425 61 177 3.5 6.1 0.00 0.00 0.00 76 1013.9
20260503225926 62 181 3.5 7.0 0.00 0.00 0.00 76 1013.9
20260503225426 62 182 3.5 7.0 0.00 0.00 0.00 76 1013.9
20260503224929 62 177 2.6 7.8 0.00 0.00 0.00 76 1014.0
20260503224429 62 187 2.6 7.8 0.00 0.00 0.00 75 1014.0
20260503223425 62 210 3.5 7.0 0.00 0.00 0.00 75 1014.0
20260503222426 62 213 2.6 7.0 0.00 0.00 0.00 75 1014.0
20260503221925 62 215 3.5 7.0 0.00 0.00 0.00 75 1014.1
20260503220930 62 222 3.5 7.8 0.00 0.00 0.00 75 1014.1
20260503215931 62 226 3.5 6.1 0.00 0.00 0.00 74 1014.0
20260503215426 62 232 3.5 7.0 0.00 0.00 0.00 74 1013.9
20260503214925 62 230 3.5 7.0 0.00 0.00 0.00 75 1014.0
20260503214426 62 223 2.6 6.1 0.00 0.00 0.00 75 1013.9
20260503213925 62 221 2.6 5.2 0.00 0.00 0.00 75 1013.9
20260503213429 62 223 2.6 5.2 0.00 0.00 0.00 75 1013.9
20260503212925 62 226 3.5 5.2 0.00 0.00 0.00 74 1013.9
20260503211925 63 235 2.6 6.1 0.00 0.00 0.00 74 1013.9
20260503211426 63 233 3.5 7.0 0.00 0.00 0.00 74 1013.8
20260503210426 63 233 1.7 6.1 0.00 0.00 0.00 73 1013.8
20260503205925 63 232 2.6 7.0 0.00 0.00 0.00 74 1013.7
20260503205425 63 235 3.5 7.8 0.00 0.00 0.00 73 1013.8
20260503204929 63 237 3.5 7.8 0.00 0.00 0.00 73 1013.7
20260503204426 63 237 4.3 8.7 0.00 0.00 0.00 73 1013.6
20260503203925 63 237 4.3 9.6 0.00 0.00 0.00 73 1013.5
20260503203426 63 239 3.5 9.6 0.00 0.00 0.00 72 1013.5
20260503202925 63 253 3.5 8.7 0.00 0.00 0.00 72 1013.4
20260503202426 64 262 3.5 8.7 0.00 0.00 0.00 71 1013.3
20260503201925 64 250 3.5 7.8 0.00 0.00 0.00 71 1013.3
20260503201425 64 247 3.5 7.0 0.00 0.00 0.00 71 1013.3
20260503200429 64 242 5.2 8.7 0.00 0.00 0.00 70 1013.1
20260503195928 64 239 5.2 10.4 0.00 0.00 0.00 69 1013.0
20260503195428 65 249 4.3 10.4 0.00 0.00 0.00 69 1013.0
20260503194929 65 250 4.3 10.4 0.00 0.00 0.00 68 1012.9
20260503194425 65 259 4.3 10.4 0.00 0.00 0.00 68 1012.9
20260503193929 65 258 4.3 9.6 0.00 0.00 0.00 67 1012.7
20260503193429 65 251 4.3 12.2 0.00 0.00 0.00 67 1012.7
20260503192426 66 264 5.2 12.2 0.00 0.00 0.00 65 1012.7
20260503191925 66 261 4.3 11.3 0.00 0.00 0.00 65 1012.6
20260503191426 66 255 5.2 12.2 0.00 0.00 0.00 64 1012.6
20260503190925 67 240 5.2 12.2 0.00 0.00 0.00 63 1012.5
20260503190429 67 244 5.2 13.0 0.00 0.00 0.00 62 1012.5
20260503185925 67 243 5.2 13.0 0.00 0.00 0.00 60 1012.4
20260503185428 67 236 6.1 12.2 0.00 0.00 0.00 59 1012.4
20260503184429 68 244 6.1 12.2 0.00 0.00 0.00 60 1012.3
20260503183929 68 239 7.0 13.9 0.00 0.00 0.00 61 1012.3
20260503183425 68 236 7.8 15.6 0.00 0.00 0.00 61 1012.4
20260503182925 69 234 8.7 15.6 0.00 0.00 0.00 60 1012.3
20260503182429 69 234 8.7 14.8 0.00 0.00 0.00 59 1012.3
20260503181429 69 238 8.7 14.8 0.00 0.00 0.00 57 1012.4
20260503180925 70 245 7.0 14.8 0.00 0.00 0.00 56 1012.4
20260503180429 70 243 7.0 16.5 0.00 0.00 0.00 57 1012.3
20260503175929 70 235 7.8 16.5 0.00 0.00 0.00 57 1012.3
20260503174925 71 245 6.1 16.5 0.00 0.00 0.00 56 1012.3
20260503174425 71 245 6.1 16.5 0.00 0.00 0.00 55 1012.1
20260503173925 71 243 6.1 12.2 0.00 0.00 0.00 54 1012.2
20260503173425 72 247 7.0 13.0 0.00 0.00 0.00 54 1012.1
20260503172928 72 247 7.0 13.0 0.00 0.00 0.00 54 1012.1
20260503172428 72 246 7.0 13.0 0.00 0.00 0.00 54 1012.1
20260503171429 72 237 7.8 14.8 0.00 0.00 0.00 54 1012.1
20260503170926 72 248 7.0 15.6 0.00 0.00 0.00 53 1012.3
20260503170425 73 267 6.1 15.6 0.00 0.00 0.00 52 1012.1
20260503150424 75 243 7.0 13.0 0.00 0.00 0.00 47 1012.3
20260503130925 75 261 5.2 13.9 0.00 0.00 0.00 51 1012.9
20260503090424 68 214 3.5 11.3 0.00 0.00 0.00 73 1014.2
20260503081424 66 218 2.6 7.8 0.00 0.00 0.00 79 1014.2
20260503080925 66 223 3.5 7.0 0.00 0.00 0.00 79 1014.1
20260503080424 65 224 4.3 7.0 0.00 0.00 0.00 80 1014.3
20260503072925 64 227 2.6 4.3 0.00 0.00 0.00 84 1014.1
20260503072424 64 214 1.7 4.3 0.00 0.00 0.00 85 1014.1
20260503071924 63 197 2.6 5.2 0.00 0.00 0.00 85 1014.1
20260503071424 63 189 1.7 5.2 0.00 0.00 0.00 86 1014.0
20260503070928 63 197 1.7 4.3 0.00 0.00 0.00 86 1014.0
20260503070428 62 225 2.6 5.2 0.00 0.00 0.00 86 1014.0
20260503054924 62 166 1.7 4.3 0.00 0.00 0.00 86 1013.6
20260503054427 62 162 0.9 3.5 0.00 0.00 0.00 86 1013.6
20260503053928 62 161 0.9 2.6 0.00 0.00 0.00 86 1013.5
20260503053424 62 160 0.9 1.7 0.00 0.00 0.00 86 1013.4
20260503052928 62 161 0.9 2.6 0.00 0.00 0.00 86 1013.4
20260503051924 62 161 0.9 2.6 0.00 0.00 0.00 86 1013.5
20260503051424 62 161 0.9 2.6 0.00 0.00 0.00 86 1013.5
20260503050924 62 160 0.9 2.6 0.00 0.00 0.00 86 1013.4
20260503050424 62 160 0.9 2.6 0.00 0.00 0.00 86 1013.4
20260503045924 62 160 0.9 2.6 0.00 0.00 0.00 86 1013.4
20260503045424 62 160 1.7 4.3 0.00 0.00 0.00 85 1013.4
20260503044924 62 163 1.7 4.3 0.00 0.00 0.00 85 1013.4
20260503044424 62 170 0.9 4.3 0.00 0.00 0.00 85 1013.4
20260503043928 62 186 0.9 2.6 0.00 0.00 0.00 85 1013.5
20260503043424 62 186 0.9 1.7 0.00 0.00 0.00 85 1013.5
20260503042927 62 186 0.9 2.6 0.00 0.00 0.00 85 1013.4
20260503042424 62 187 0.9 2.6 0.00 0.00 0.00 85 1013.5
20260503041928 62 188 0.9 2.6 0.00 0.00 0.00 85 1013.5
20260503040924 62 186 0.9 3.5 0.00 0.00 0.00 84 1013.4
20260503040428 62 183 0.9 3.5 0.00 0.00 0.00 84 1013.5
20260503035424 63 184 0.9 3.5 0.00 0.00 0.00 84 1013.7
20260503034923 63 193 1.7 3.5 0.00 0.00 0.00 83 1013.6
20260503034428 63 202 0.9 3.5 0.00 0.00 0.00 83 1013.7
20260503033924 63 207 0.9 2.6 0.00 0.00 0.00 83 1013.7
20260503033427 63 207 0.9 3.5 0.00 0.00 0.00 83 1013.6
20260503032925 63 216 1.7 4.3 0.00 0.00 0.00 83 1013.6
20260503032424 64 252 1.7 5.2 0.00 0.00 0.00 83 1013.6
20260503031923 64 277 1.7 5.2 0.00 0.00 0.00 83 1013.7
20260503031425 64 269 1.7 5.2 0.00 0.00 0.00 83 1013.8
20260503030424 63 220 2.6 5.2 0.00 0.00 0.00 82 1013.8
20260503025928 63 218 1.7 3.5 0.00 0.00 0.00 82 1013.9
20260503025424 63 214 0.9 3.5 0.00 0.00 0.00 82 1013.7
20260503024924 63 223 0.9 3.5 0.00 0.00 0.00 82 1013.7
20260503024424 63 226 1.7 3.5 0.00 0.00 0.00 82 1013.7
20260503023923 63 230 1.7 3.5 0.00 0.00 0.00 82 1013.8
20260503023424 63 218 1.7 3.5 0.00 0.00 0.00 82 1013.8
20260503022927 63 215 1.7 4.3 0.00 0.00 0.00 82 1013.7
20260503022424 63 228 2.6 5.2 0.00 0.00 0.00 82 1014.0
20260503021925 63 220 1.7 5.2 0.00 0.00 0.00 82 1014.0
20260503021427 63 175 0.9 3.5 0.00 0.00 0.00 82 1013.9
20260503020924 63 175 0.9 3.5 0.00 0.00 0.00 82 1013.8
20260503015930 63 186 1.7 3.5 0.00 0.00 0.00 82 1013.8
20260503015434 64 200 1.7 6.1 0.00 0.00 0.00 82 1013.9
20260503014930 63 193 2.6 6.1 0.00 0.00 0.00 82 1014.0
20260503014430 63 184 2.6 6.1 0.00 0.00 0.00 81 1014.0
20260503013930 63 183 2.6 5.2 0.00 0.00 0.00 81 1014.2
20260503013434 63 178 2.6 5.2 0.00 0.00 0.00 81 1014.3
20260503012934 64 190 2.6 5.2 0.00 0.00 0.00 81 1014.4
20260503012430 64 197 2.6 6.1 0.00 0.00 0.00 81 1014.4
20260503011930 64 186 2.6 7.0 0.00 0.00 0.00 81 1014.6
20260503010930 64 188 2.6 6.1 0.00 0.00 0.00 80 1014.6
20260503010434 64 194 2.6 7.0 0.00 0.00 0.00 80 1014.7
20260503005934 64 206 1.7 7.0 0.00 0.00 0.00 80 1014.9
20260503005431 64 197 2.6 6.1 0.00 0.00 0.00 79 1015.0
20260503004934 64 206 2.6 6.1 0.00 0.00 0.00 79 1015.1
20260503003934 64 208 1.7 6.1 0.00 0.00 0.00 78 1015.1
20260503003430 63 204 1.7 6.1 0.00 0.00 0.00 78 1015.1
20260503002934 63 201 2.6 6.1 0.00 0.00 0.00 78 1015.1
20260503002431 63 211 2.6 5.2 0.00 0.00 0.00 77 1015.1
20260503001930 63 221 2.6 5.2 0.00 0.00 0.00 77 1015.2
20260503000930 63 224 2.6 5.2 0.00 0.00 0.00 76 1015.3